Home   Weather   Fukuoka   Past weeks

Flag for Japan Past Weather in Fukuoka, Japan — Yesterday and Last 2 Weeks

Now
57 °F

Partly cloudy.


Feels Like: 57 °F
Forecast: 54 / 64 °F
Wind: 2 mph from Northeast

Location: Fukuoka Airport

Current Time: Apr 27, 2017 at 4:48:34 am

Latest Report: Apr 27, 2017 at 4:00 am


Visibility: N/A

Pressure: 29.80 "Hg

Humidity: 88%

Dew Point: 54 °F

Location of FukuokaLocation

Past Weather in Fukuoka — Graph

°F

Fukuoka Temperature Yesterday

Maximum temperature yesterday: 68 °F (at 12:00 am)
Minimum temperature yesterday: 59 °F (at 8:10 am)
Average temperature yesterday: 62 °F

High & Low Weather Summary for the Past Weeks

 TemperatureHumidityPressure
High79 °F (Apr 16, 12:00 pm)94% (Apr 12, 6:30 am)30.15 "Hg (Apr 12, 6:30 am)
Low46 °F (Apr 13, 2:00 am)14% (Apr 14, 4:30 pm)29.36 "Hg (Apr 17, 7:30 pm)
Average63 °F59%29.90 "Hg
* Reported Apr 12 3:00 am — Apr 27 3:00 am, Fukuoka, Weather by CustomWeather, © 2017

Note: Actual official high and low records may vary slightly from our data, if they occured in-between our weather recording intervals... More about our weather records

Advertising

Fukuoka Weather History for the Previous 24 Hours

Scroll right to see more
 ConditionsComfort  
Time TempWeatherWind HumidityBarometerVisibility
3:00 am
Thu, Apr 27
57 °FClear.1 mph88%29.83 "Hg6 mi
2:30 am57 °FPartly cloudy.2 mph88%29.83 "HgN/A
2:00 am59 °FPartly cloudy.2 mph82%29.83 "HgN/A
1:43 am59 °FPassing clouds.3 mph82%29.83 "HgN/A
1:00 am59 °FClear.8 mph82%29.86 "HgN/A
12:30 am59 °FClear.7 mph82%29.86 "HgN/A
12:00 am59 °FPassing clouds.5 mph82%29.86 "Hg4 mi
11:30 pm
Wed, Apr 26
59 °FPassing clouds.5 mph82%29.86 "HgN/A
11:00 pm59 °FPassing clouds.3 mph82%29.86 "HgN/A
10:30 pm59 °FPassing clouds.3 mph82%29.86 "HgN/A
10:00 pm61 °FPartly cloudy.3 mph77%29.86 "HgN/A
9:30 pm61 °FPartly cloudy.5 mph77%29.86 "HgN/A
9:00 pm61 °FPartly cloudy.7 mph77%29.86 "HgN/A
8:30 pm61 °FPartly cloudy.6 mph77%29.86 "HgN/A
8:00 pm61 °FPartly cloudy.6 mph77%29.86 "HgN/A
7:30 pm61 °FPassing clouds.3 mph77%29.83 "HgN/A
6:30 pm63 °FPartly sunny.7 mph73%29.83 "HgN/A
6:00 pm61 °FPartly sunny.9 mph77%29.83 "HgN/A
5:30 pm63 °FBroken clouds.8 mph77%29.83 "HgN/A
5:00 pm63 °FBroken clouds.7 mph73%29.86 "HgN/A
4:30 pm63 °FSprinkles. Broken clouds.6 mph77%29.86 "HgN/A
4:00 pm63 °FSprinkles. Broken clouds.7 mph77%29.86 "HgN/A
3:30 pm63 °FSprinkles. Broken clouds.5 mph77%29.89 "HgN/A
3:00 pm61 °FSprinkles. Broken clouds.6 mph83%29.89 "HgN/A
2:30 pm63 °FSprinkles. Broken clouds.6 mph77%29.92 "HgN/A
2:00 pm63 °FSprinkles. Broken clouds.5 mph77%29.92 "HgN/A
1:30 pm61 °FLight rain. Broken clouds.6 mph83%29.92 "HgN/A
1:00 pm61 °FLight rain. Broken clouds.3 mph83%29.95 "HgN/A
12:30 pm61 °FLight rain. Broken clouds.6 mph83%29.98 "HgN/A
12:00 pm61 °FLight rain. Broken clouds.6 mph77%29.98 "HgN/A
11:30 am61 °FLight rain. Broken clouds.7 mph77%29.98 "HgN/A
11:00 am61 °FLight rain. Broken clouds.6 mph77%30.01 "HgN/A
10:30 am59 °FLight rain. Broken clouds.6 mph82%30.01 "HgN/A
10:00 am59 °FSprinkles. Broken clouds.3 mph82%30.04 "HgN/A
9:30 am59 °FSprinkles. Broken clouds.5 mph82%30.04 "HgN/A
9:00 am61 °FSprinkles. Broken clouds.5 mph77%30.04 "HgN/A
8:30 am59 °FSprinkles. Broken clouds.6 mph82%30.04 "HgN/A
8:10 am59 °FSprinkles. Broken clouds.8 mph88%30.04 "Hg5 mi
7:30 am61 °FSprinkles. Fog.10 mph83%30.04 "Hg2 mi
7:00 am63 °FRain showers. Fog.9 mph83%30.04 "Hg2 mi
6:30 am63 °FSprinkles. Broken clouds.6 mph83%30.01 "HgN/A
6:00 am63 °FSprinkles. Broken clouds.5 mph83%30.01 "HgN/A
5:30 am63 °FLight rain. Mostly cloudy.6 mph83%30.01 "HgN/A
5:00 am63 °FLight rain. Mostly cloudy.5 mph88%30.01 "Hg5 mi
4:30 am63 °FLight rain. Mostly cloudy.3 mph88%30.01 "Hg6 mi
4:09 am64 °FLight rain. Partly cloudy.3 mph78%30.04 "Hg5 mi
4:00 am63 °FRain. Passing clouds.3 mph88%30.04 "Hg4 mi
Weather by CustomWeather, © 2017

See weather overviewHow to use our weather pages